STARLINK-1577, 46063

Orbit data source: Space-Track

STARLINK-1577, 46063 is a payload satellite owned by SpaceX/Seattle (US) in LEO that was launched on Fri, 07 Aug 2020 UTC via an FALCON 9 launch vehicle from the Air Force Eastern Test Range (AFETR). Payload-class satellites include a variety of spacecraft equipped with specific instruments for various scientific and technological missions. These include communications satellites like Starlink; space stations such as the ISS; scientific satellites like the Hubble; Earth observation satellites from companies like Planet Labs, Umbra, and HawkEye 360; GPS; miniature CubeSats for education and research; and military/defense satellites.

Loading next visibility...
Identifier
46063, 2020-055AN
Orbit
LEO
Country
Flag of USUS
Related business
Manufacturer
SpaceX/Seattle
Mission
Operational Commercial Communications
Bus & Motor
STARLINK, Unknown motor
Mass
260 kg wet, ~248 kg dry
Launch date (UTC)
2020-08-07 (6 years ago)
Launch vehicle
FALCON 9
Launch site
Air Force Eastern Test Range (AFETR)
Object type
Payload
Rocket body
Debris
Shape & HBR
Box + 1 Pan, 10.1 m
Radar Cross Section
13.562 m², Large (>1 m²)

Expand to show TLE details & history
Last TLE update: 7 hours ago

TLE from 7 hours ago
0 STARLINK-1577
1 46063U 20055AN  26168.78786280  .00000987  00000-0  43564-4 0  9990
2 46063  53.1590   8.2123 0001061  87.6438 272.4685 15.31703420324407
Epoch: 2026-06-17T18:54Z
TLE epoch observation values (Epoch: 2026-06-17T18:54:31.345Z)
Latitude
-0.00003°
Longitude
178.54115°
Altitude
471.599 km
Speed
7.631 km/s
True Right ascension
00h 32m 50s
True Declination
0° 00' 00"
Sunlit
Object was in daylight at epoch
Visualization orbit readout
Latitude
Unknown
Longitude
Unknown
Altitude
Unknown
Speed
Unknown
Apparent Right ascension
Unknown
Apparent Declination
Unknown
Sunlit
N/A
Visualization observer readout
Local Sidereal Time
12:42:17
Azimuth
Unknown
Elevation
Unknown
Doppler factor
Unknown
Orbital elements
Apogee altitude
471.713 km
Perigee altitude
470.26 km
Semi-major axis
6,849.124 km
Eccentricity
0.00011
Inclination
53.159°
RAAN
8.2123°
Arg. of periapsis
87.6438°
True anomaly
272.45635°
Mean anomaly
272.4685°
Eccentric anomaly
272.46243°
Mean motion
3.82905 °/min
Orbital period
94.02 mins
BSTAR
0.000043564
Loading maneuver chart data...
Computing Atmospheric mass density...

Documentation

Showing up to 5 results
|